User: anonymous   Login
Location: Unspecified
(0.0000°N, 0.0000°E)
Time: 09:13:32
(UTC+01:00)
Language:

SJ-6B - Orbit

View from above orbital plane
View from above orbital plane
View from above satellite
View from above satellite

Ground track
Ground track

The orbit data is extracted from the following two-line orbital elements,

1 28415U 04035C   18017.18911509 +.00000178 +00000-0 +16116-4 0  9998
2 28415 097.7247 052.2084 0053426 114.0664 246.6165 15.06404317730798
Epoch (UTC): 17 January 2018 04:32:19
Eccentricity: 0.0053426
inclination: 97.7247°
perigee height: 510 km
apogee height: 584 km
right ascension of ascending node: 52.2084°
argument of perigee: 114.0664°
revolutions per day: 15.06404317
mean anomaly at epoch: 246.6165°
orbit number at epoch: 73079

The dashed part of the orbit path shows where the satellite is in the earth's shadow,  

DLR